Location: Beddau
(51.5575°N, 3.3561°W)
Time: 13:57:51
(UTC+00:00)

Lacrosse 4 Rocket - Pass Details

Date: 03 March 2021
Orbit: 537 x 620 km, 68.0° (Epoch: 11 April)

Event Time Altitude Azimuth Distance (km) Brightness Sun altitude
Rises 20:48:29 0° 214° (SW) 2,833 5.1 -26.7°
Reaches altitude 10° 20:50:41 10° 215° (SW) 1,946 4.2 -27.0°
Enters shadow 20:51:01 12° 215° (SW) 1,821 4.0 -27.1°
